Location: Newark
(55.7083°N, 13.1992°E)
Time: 17:22:48
(UTC+00:00)

Transit 4A - Pass Details

Date: 27 February 2020
Orbit: 871 x 973 km, 66.8° (Epoch: 05 April)

Event Time Altitude Azimuth Distance (km) Brightness Sun altitude
Exits shadow 23:12:56 12° 44° (NE) 2,416 10.4 -42.5°
Drops below altitude 10° 23:13:14 10° 44° (NE) 2,531 10.5 -42.5°
Sets 23:15:43 0° 44° (NE) 3,473 11.4 -42.5°
